H1 CPF 2 NER 2025 10 10 9 283 01 glonass141 H2 1908801 9141 44850 2025 10 10 0 0 0 2025 10 13 23 45 0 900 1 1 0 0 0 1 H9 10 0 60958 0.00000 0 -4149930.800 13428553.232 21315202.571 10 0 60958 900.00000 0 -5384703.465 11034600.988 22385070.967 10 0 60958 1800.00000 0 -6852166.429 8651736.626 23021403.382 10 0 60958 2700.00000 0 -8524451.235 6344654.036 23211825.021 10 0 60958 3600.00000 0 -10362441.371 4172503.440 22952567.972 10 0 60958 4500.00000 0 -12317233.022 2186623.639 22248549.409 10 0 60958 5400.00000 0 -14332020.017 428609.802 21113285.485 10 0 60958 6300.00000 0 -16344326.419 -1071203.884 19568641.800 10 0 60958 7200.00000 0 -18288495.475 -2294784.289 17644424.149 10 0 60958 8100.00000 0 -20098332.724 -3236919.183 15377816.106 10 0 60958 9000.00000 0 -21709794.070 -3905195.245 12812672.800 10 0 60958 9900.00000 0 -23063607.055 -4319435.050 9998683.153 10 0 60958 10800.00000 0 -24107715.684 -4510616.405 6990415.571 10 0 60958 11700.00000 0 -24799445.841 -4519319.269 3846264.629 10 0 60958 12600.00000 0 -25107299.401 -4393765.609 627318.747 10 0 60958 13500.00000 0 -25012300.334 -4187535.081 -2603829.223 10 0 60958 14400.00000 0 -24508834.669 -3957053.615 -5784304.980 10 0 60958 15300.00000 0 -23604947.411 -3758961.999 -8852184.753 10 0 60958 16200.00000 0 -22322082.571 -3647477.090 -11747711.225 10 0 60958 17100.00000 0 -20694276.096 -3671858.876 -14414468.556 10 0 60958 18000.00000 0 -18766834.971 -3874092.267 -16800492.365 10 0 60958 18900.00000 0 -16594557.633 -4286883.456 -18859291.951 10 0 60958 19800.00000 0 -14239570.462 -4932057.193 -20550763.969 10 0 60958 20700.00000 0 -11768871.381 -5819424.179 -21841979.100 10 0 60958 21600.00000 0 -9251683.923 -6946167.592 -22707826.092 10 0 60958 22500.00000 0 -6756732.930 -8296775.589 -23131500.587 10 0 60958 23400.00000 0 -4349556.132 -9843523.252 -23104829.399 10 0 60958 24300.00000 0 -2089963.980 -11547484.128 -22628424.320 10 0 60958 25200.00000 0 -29753.524 -13360029.019 -21711662.954 10 0 60958 26100.00000 0 1789228.874 -15224749.032 -20372497.512 10 0 60958 27000.00000 0 3336596.190 -17079722.080 -18637095.891 10 0 60958 27900.00000 0 4594439.243 -18860027.541 -16539322.579 10 0 60958 28800.00000 0 5557814.321 -20500403.378 -14120070.081 10 0 60958 29700.00000 0 6234681.604 -21937934.168 -11426454.422 10 0 60958 30600.00000 0 6645299.304 -23114657.230 -8510890.892 10 0 60958 31500.00000 0 6821101.189 -23979977.658 -5430068.583 10 0 60958 32400.00000 0 6803106.914 -24492791.219 -2243844.112 10 0 60958 33300.00000 0 6639933.995 -24623226.518 985923.497 10 0 60958 34200.00000 0 6385496.824 -24353933.955 4196573.801 10 0 60958 35100.00000 0 6096490.929 -23680868.152 7325858.266 10 0 60958 36000.00000 0 5829769.401 -22613531.797 10313142.406 10 0 60958 36900.00000 0 5639722.453 -21174671.400 13100573.650 10 0 60958 37800.00000 0 5575770.640 -19399438.226 15634192.806 10 0 60958 38700.00000 0 5680077.042 -17334049.735 17864968.404 10 0 60958 39600.00000 0 5985574.352 -15034007.366 19749734.818 10 0 60958 40500.00000 0 6514389.411 -12561944.517 21252017.193 10 0 60958 41400.00000 0 7276731.167 -9985193.446 22342728.359 10 0 60958 42300.00000 0 8270288.759 -7373171.139 23000725.321 10 0 60958 43200.00000 0 9480165.448 -4794691.274 23213215.434 10 0 60958 44100.00000 0 10879352.062 -2315312.242 22976004.950 10 0 60958 45000.00000 0 12429721.490 5170.260 22293585.240 10 0 60958 45900.00000 0 14083504.310 2114983.550 21179054.744 10 0 60958 46800.00000 0 15785185.761 3972298.578 19653877.380 10 0 60958 47700.00000 0 17473746.635 5546731.944 17747481.006 10 0 60958 48600.00000 0 19085156.118 6820367.422 15496702.322 10 0 60958 49500.00000 0 20555013.653 7788254.662 12945087.465 10 0 60958 50400.00000 0 21821230.043 8458364.250 10142060.390 10 0 60958 51300.00000 0 22826635.726 8851000.829 7141973.912 10 0 60958 52200.00000 0 23521406.433 8997698.731 4003060.831 10 0 60958 53100.00000 0 23865203.468 8939646.424 786305.012 10 0 60958 54000.00000 0 23828937.286 8725706.249 -2445745.730 10 0 60958 54900.00000 0 23396078.542 8410113.379 -5630201.531 10 0 60958 55800.00000 0 22563459.672 8049951.946 -8705062.576 10 0 60958 56700.00000 0 21341531.528 7702516.108 -11610436.415 10 0 60958 57600.00000 0 19754062.814 7422669.029 -14289715.594 10 0 60958 58500.00000 0 17837293.740 7260313.025 -16690691.429 10 0 60958 59400.00000 0 15638578.715 7258079.507 -18766581.106 10 0 60958 60300.00000 0 13214574.619 7449337.921 -20476947.212 10 0 60958 61200.00000 0 10629050.592 7856609.210 -21788491.098 10 0 60958 62100.00000 0 7950411.234 8490451.942 -22675704.300 10 0 60958 63000.00000 0 5249037.092 9348868.915 -23121365.252 10 0 60958 63900.00000 0 2594553.870 10417259.859 -23116871.809 10 0 60958 64800.00000 0 53144.495 11668922.437 -22662403.480 10 0 60958 65700.00000 0 -2314983.986 13066080.534 -21766910.720 10 0 60958 66600.00000 0 -4457873.431 14561396.382 -20447932.050 10 0 60958 67500.00000 0 -6333733.640 16099902.661 -18731243.180 10 0 60958 68400.00000 0 -7912428.579 17621273.007 -16650345.531 10 0 60958 69300.00000 0 -9176469.370 19062335.132 -14245804.695 10 0 60958 70200.00000 0 -10121474.473 20359720.600 -11564452.245 10 0 60958 71100.00000 0 -10756080.029 21452539.692 -8658466.968 10 0 60958 72000.00000 0 -11101306.370 22284968.795 -5584353.900 10 0 60958 72900.00000 0 -11189409.617 22808641.661 -2401841.535 10 0 60958 73800.00000 0 -11062268.724 22984744.218 827280.962 10 0 60958 74700.00000 0 -10769377.739 22785725.301 4040363.536 10 0 60958 75600.00000 0 -10365529.295 22196551.947 7175108.542 10 0 60958 76500.00000 0 -9908288.018 21215457.091 10170774.026 10 0 60958 77400.00000 0 -9455360.929 19854148.831 12969343.832 10 0 60958 78300.00000 0 -9061975.812 18137472.898 15516642.363 10 0 60958 79200.00000 0 -8778377.749 16102542.591 17763373.197 10 0 60958 80100.00000 0 -8647548.745 13797372.418 19666062.357 10 0 60958 81000.00000 0 -8703245.755 11279071.913 21187889.151 10 0 60958 81900.00000 0 -8968438.976 8611673.966 22299389.658 10 0 60958 82800.00000 0 -9454215.645 5863686.762 22979020.322 10 0 60958 83700.00000 0 -10159195.237 3105469.500 23213571.643 10 0 60958 84600.00000 0 -11069480.999 406539.087 22998424.531 10 0 60958 85500.00000 0 -12159150.635 -2167082.206 22337644.510 10 0 60959 0.00000 0 -13391266.747 -4555369.553 21243911.790 10 0 60959 900.00000 0 -14719366.950 -6706547.733 19738287.185 10 0 60959 1800.00000 0 -16089371.291 -8578997.072 17849818.878 10 0 60959 2700.00000 0 -17441830.962 -10142738.970 15614994.335 10 0 60959 3600.00000 0 -18714423.885 -11380436.330 13077047.835 10 0 60959 4500.00000 0 -19844594.181 -12287868.531 10285135.095 10 0 60959 5400.00000 0 -20772225.147 -12873860.739 7293389.764 10 0 60959 6300.00000 0 -21442233.322 -13159670.267 4159879.094 10 0 60959 7200.00000 0 -21806973.885 -13177855.501 945478.538 10 0 60959 8100.00000 0 -21828354.907 -12970674.922 -2287312.985 10 0 60959 9000.00000 0 -21479569.808 -12588083.858 -5475593.807 10 0 60959 9900.00000 0 -20746373.168 -12085413.985 -8557291.669 10 0 60959 10800.00000 0 -19627844.221 -11520834.451 -11472382.356 10 0 60959 11700.00000 0 -18136604.046 -10952703.024 -14164069.871 10 0 60959 12600.00000 0 -16298475.768 -10436920.637 -16579903.915 10 0 60959 13500.00000 0 -14151600.813 -10024402.579 -18672811.786 10 0 60959 14400.00000 0 -11745047.499 -9758774.658 -20402023.681 10 0 60959 15300.00000 0 -9136969.875 -9674392.935 -21733872.689 10 0 60959 16200.00000 0 -6392393.761 -9794771.682 -22642453.535 10 0 60959 17100.00000 0 -3580722.650 -10131486.622 -23110127.194 10 0 60959 18000.00000 0 -773067.840 -10683600.145 -23127861.695 10 0 60959 18900.00000 0 1960485.676 -11437632.790 -22695402.853 10 0 60959 19800.00000 0 4553563.577 -12368082.067 -21821272.115 10 0 60959 20700.00000 0 6946025.199 -13438466.359 -20522592.107 10 0 60959 21600.00000 0 9086220.602 -14602849.448 -18824743.882 10 0 60959 22500.00000 0 10932888.570 -15807780.898 -16760863.112 10 0 60959 23400.00000 0 12456617.701 -16994569.989 -14371185.629 10 0 60959 24300.00000 0 13640811.244 -18101796.913 -11702255.583 10 0 60959 25200.00000 0 14482117.354 -19067955.067 -8806012.163 10 0 60959 26100.00000 0 14990308.869 -19834112.822 -5738773.195 10 0 60959 27000.00000 0 15187619.919 -20346482.558 -2560135.852 10 0 60959 27900.00000 0 15107569.385 -20558788.782 668183.709 10 0 60959 28800.00000 0 14793322.643 -20434335.842 3883548.868 10 0 60959 29700.00000 0 14295662.213 -19947688.541 7023615.736 10 0 60959 30600.00000 0 13670653.990 -19085895.367 10027537.490 10 0 60959 31500.00000 0 12977108.185 -17849203.346 12837136.661 10 0 60959 32400.00000 0 12273942.193 -16251234.790 15398023.156 10 0 60959 33300.00000 0 11617556.320 -14318618.652 17660637.099 10 0 60959 34200.00000 0 11059332.305 -12090091.662 19581197.246 10 0 60959 35100.00000 0 10643359.097 -9615106.281 21122537.729 10 0 60959 36000.00000 0 10404480.620 -6952002.524 22254818.126 10 0 60959 36900.00000 0 10366746.742 -4165818.495 22956094.174 10 0 60959 37800.00000 0 10542331.906 -1325829.017 23212739.009 10 0 60959 38700.00000 0 10930966.592 1497087.273 23019707.364 10 0 60959 39600.00000 0 11519905.681 4233144.981 22380637.782 10 0 60959 40500.00000 0 12284435.753 6816303.163 21307790.634 10 0 60959 41400.00000 0 13188901.132 9186762.327 19821822.443 10 0 60959 42300.00000 0 14188207.046 11293204.895 17951399.790 10 0 60959 43200.00000 0 15229738.317 13094686.975 15732658.979 10 0 60959 44100.00000 0 16255614.480 14562103.254 13208520.361 10 0 60959 45000.00000 0 17205187.739 15679164.093 10427869.193 10 0 60959 45900.00000 0 18017679.429 16442843.860 7444617.603 10 0 60959 46800.00000 0 18634844.253 16863281.427 4316664.816 10 0 60959 47700.00000 0 19003549.610 16963136.598 1104775.302 10 0 60959 48600.00000 0 19078160.359 16776429.240 -2128603.524 10 0 60959 49500.00000 0 18822626.943 16346909.914 -5320560.765 10 0 60959 50400.00000 0 18212186.997 15726030.879 -8408954.189 10 0 60959 51300.00000 0 17234606.651 14970603.676 -11333630.103 10 0 60959 52200.00000 0 15890907.172 14140243.030 -14037606.016 10 0 60959 53100.00000 0 14195544.463 13294706.182 -16468191.791 10 0 60959 54000.00000 0 12176032.275 12491241.312 -18578026.347 10 0 60959 54900.00000 0 9872023.682 11782058.320 -20326008.751 10 0 60959 55800.00000 0 7333888.553 11212029.915 -21678104.864 10 0 60959 56700.00000 0 4620846.107 10816721.012 -22608013.449 10 0 60959 57600.00000 0 1798730.447 10620830.149 -23097678.683 10 0 60959 58500.00000 0 -1062517.513 10637108.980 -23137639.222 10 0 60959 59400.00000 0 -3891527.028 10865805.296 -22727207.402 10 0 60959 60300.00000 0 -6618231.766 11294652.666 -21874475.585 10 0 60959 61200.00000 0 -9176547.436 11899406.537 -20596150.080 10 0 60959 62100.00000 0 -11506881.653 12644903.379 -18917216.494 10 0 60959 63000.00000 0 -13558372.077 13486597.375 -16870443.605 10 0 60959 63900.00000 0 -15290760.526 14372508.993 -14495735.996 10 0 60959 64800.00000 0 -16675826.200 15245502.443 -11839348.613 10 0 60959 65700.00000 0 -17698319.830 16045795.276 -8952979.029 10 0 60959 66600.00000 0 -18356361.545 16713593.700 -5892755.636 10 0 60959 67500.00000 0 -18661287.870 17191742.066 -2718141.912 10 0 60959 68400.00000 0 -18636956.391 17428274.593 509221.511 10 0 60959 69300.00000 0 -18318539.213 17378761.714 3726714.071 10 0 60959 70200.00000 0 -17750857.759 17008352.313 6871948.358 10 0 60959 71100.00000 0 -16986330.324 16293426.089 9883975.477 10 0 60959 72000.00000 0 -16082619.749 15222786.812 12704459.481 10 0 60959 72900.00000 0 -15100080.704 13798346.567 15278798.589 10 0 60959 73800.00000 0 -14099113.987 12035272.303 17557172.211 10 0 60959 74700.00000 0 -13137538.662 9961588.373 19495494.407 10 0 60959 75600.00000 0 -12268091.690 7617251.145 21056256.490 10 0 60959 76500.00000 0 -11536159.078 5052733.353 22209243.588 10 0 60959 77400.00000 0 -10977832.673 2327175.919 22932112.435 10 0 60959 78300.00000 0 -10618373.181 -493817.525 23210820.099 10 0 60959 79200.00000 0 -10471143.116 -3340653.657 23039895.982 10 0 60959 80100.00000 0 -10537054.091 -6142389.375 22422552.014 10 0 60959 81000.00000 0 -10804551.709 -8829430.991 21370628.710 10 0 60959 81900.00000 0 -11250139.224 -11336182.590 19904377.439 10 0 60959 82800.00000 0 -11839418.923 -13603535.058 18052082.093 10 0 60959 83700.00000 0 -12528608.650 -15581093.499 15849526.132 10 0 60959 84600.00000 0 -13266471.009 -17229051.057 13339313.836 10 0 60959 85500.00000 0 -13996575.224 -18519631.261 10570057.464 10 0 60960 0.00000 0 -14659797.210 -19438038.499 7595445.008 10 0 60960 900.00000 0 -15196953.253 -19982876.851 4473203.980 10 0 60960 1800.00000 0 -15551455.176 -20166018.070 1263984.781 10 0 60960 2700.00000 0 -15671875.418 -20011925.330 -1969820.148 10 0 60960 3600.00000 0 -15514311.542 -19556459.508 -5165294.223 10 0 60960 4500.00000 0 -15044449.010 -18845218.740 -8260228.795 10 0 60960 5400.00000 0 -14239233.075 -17931481.341 -11194344.198 10 0 60960 6300.00000 0 -13088077.122 -16873839.444 -13910474.822 10 0 60960 7200.00000 0 -11593554.453 -15733624.078 -16355693.858 10 0 60960 8100.00000 0 -9771542.499 -14572231.389 -18482354.682 10 0 60960 9000.00000 0 -7650811.791 -13448463.963 -20249027.635 10 0 60960 9900.00000 0 -5272075.785 -12416000.467 -21621313.231 10 0 60960 10800.00000 0 -2686540.519 -11521101.168 -22572515.557 10 0 60960 11700.00000 0 45985.703 -10800646.606 -23084162.648 10 0 60960 12600.00000 0 2859343.736 -10280592.269 -23146363.832 10 0 60960 13500.00000 0 5683542.217 -9974904.187 -22757997.446 10 0 60960 14400.00000 0 8447438.320 -9885019.741 -21926725.745 10 0 60960 15300.00000 0 11081468.880 -9999855.548 -20668837.280 10 0 60960 16200.00000 0 13520318.246 -10296361.016 -19008920.413 10 0 60960 17100.00000 0 15705412.107 -10740593.053 -16979374.891 10 0 60960 18000.00000 0 17587133.917 -11289265.374 -14619771.610 10 0 60960 18900.00000 0 19126672.498 -11891705.861 -11976073.560 10 0 60960 19800.00000 0 20297424.919 -12492138.305 -9099733.661 10 0 60960 20700.00000 0 21085897.601 -13032191.333 -6046687.571 10 0 60960 21600.00000 0 21492069.701 -13453527.874 -2876261.574 10 0 60960 22500.00000 0 21529205.467 -13700483.705 349982.823 10 0 60960 23400.00000 0 21223125.306 -13722603.452 3569444.717 10 0 60960 24300.00000 0 20610967.955 -13476966.987 6719696.647 10 0 60960 25200.00000 0 19739497.233 -12930208.270 9739690.864 10 0 60960 26100.00000 0 18663025.680 -12060141.753 12570935.812 10 0 60960 27000.00000 0 17441043.021 -10856928.131 15158620.469 10 0 60960 27900.00000 0 16135649.269 -9323730.499 17452665.503 10 0 60960 28800.00000 0 14808900.014 -7476833.258 19408681.783 10 0 60960 29700.00000 0 13520174.569 -5345218.324 20988818.819 10 0 60960 30600.00000 0 12323676.338 -2969615.472 22162487.861 10 0 60960 31500.00000 0 11266168.976 -401065.268 22906946.779 10 0 60960 32400.00000 0 10385041.916 2300947.217 23207736.306 10 0 60960 33300.00000 0 9706785.164 5070712.141 23058959.878 10 0 60960 34200.00000 0 9245936.426 7838777.899 22463401.837 10 0 60960 35100.00000 0 9004544.158 10534596.376 21432481.555 10 0 60960 36000.00000 0 8972169.048 13089222.610 19986043.703 10 0 60960 36900.00000 0 9126424.215 15437958.367 18151987.688 10 0 60960 37800.00000 0 9434032.197 17522831.093 15965742.138 10 0 60960 38700.00000 0 9852355.201 19294805.892 13469593.091 10 0 60960 39600.00000 0 10331335.232 20715638.687 10711877.457 10 0 60960 40500.00000 0 10815763.165 21759293.104 7746056.049 10 0 60960 41400.00000 0 11247781.597 22412861.353 4629683.112 10 0 60960 42300.00000 0 11569515.866 22676949.839 1423291.733 10 0 60960 43200.00000 0 11725721.648 22565512.559 -1810783.388 10 0 60960 44100.00000 0 11666336.208 22105138.606 -5009622.720 10 0 60960 45000.00000 0 11348823.998 21333823.299 -8110953.828 10 0 60960 45900.00000 0 10740215.595 20299274.571 -11054373.525 10 0 60960 46800.00000 0 9818751.773 19056826.155 -13782535.296 10 0 60960 47700.00000 0 8575061.166 17667046.098 -16242277.601 10 0 60960 48600.00000 0 7012819.834 16193142.223 -18385669.939 10 0 60960 49500.00000 0 5148863.120 14698274.790 -20170955.334 10 0 60960 50400.00000 0 3012743.609 13242890.585 -21563370.112 10 0 60960 51300.00000 0 645752.622 11882191.486 -22535824.615 10 0 60960 52200.00000 0 -1900554.569 10663844.629 -23069431.442 10 0 60960 53100.00000 0 -4566268.464 9626030.736 -23153871.046 10 0 60960 54000.00000 0 -7285390.426 8795912.502 -22787587.920 10 0 60960 54900.00000 0 -9988358.608 8188586.859 -21977814.037 10 0 60960 55800.00000 0 -12604729.316 7806564.214 -20740419.634 10 0 60960 56700.00000 0 -15065902.003 7639795.303 -19099594.875 10 0 60960 57600.00000 0 -17307774.496 7666243.050 -17087369.165 10 0 60960 58500.00000 0 -19273218.017 7852973.762 -14742978.071 10 0 60960 59400.00000 0 -20914269.385 8157720.096 -12112090.734 10 0 60960 60300.00000 0 -22193949.776 8530848.397 -9245913.326 10 0 60960 61200.00000 0 -23087635.170 8917646.065 -6200186.556 10 0 60960 62100.00000 0 -23583922.597 9260831.315 -3034097.190 10 0 60960 63000.00000 0 -23684957.516 9503178.514 190874.797 10 0 60960 63900.00000 0 -23406210.253 9590147.674 3412150.649 10 0 60960 64800.00000 0 -22775712.542 9472406.825 6567265.416 10 0 60960 65700.00000 0 -21832787.662 9108140.747 9595075.137 10 0 60960 66600.00000 0 -20626328.691 8465048.803 12436935.325 10 0 60960 67500.00000 0 -19212697.937 7521947.911 15037828.395 10 0 60960 68400.00000 0 -17653336.019 6269913.309 17347418.879 10 0 60960 69300.00000 0 -16012180.769 4712909.170 19321016.906 10 0 60960 70200.00000 0 -14353003.488 2867882.285 20920432.398 10 0 60960 71100.00000 0 -12736773.140 764314.213 22114704.646 10 0 60960 72000.00000 0 -11219157.509 -1556750.470 22880694.210 10 0 60960 72900.00000 0 -9848264.441 -4044160.771 23203526.665 10 0 60960 73800.00000 0 -8662716.181 -6638541.890 23076880.243 10 0 60960 74700.00000 0 -7690136.155 -9274527.555 22503112.055 10 0 60960 75600.00000 0 -6946110.495 -11883251.395 21493220.285 10 0 60960 76500.00000 0 -6433667.263 -14394995.929 20066642.446 10 0 60960 77400.00000 0 -6143295.028 -16741890.822 18250892.608 10 0 60960 78300.00000 0 -6053500.276 -18860549.699 16081043.327 10 0 60960 79200.00000 0 -6131880.783 -20694536.713 13599060.785 10 0 60960 80100.00000 0 -6336670.520 -22196560.509 10853004.594 10 0 60960 81000.00000 0 -6618691.714 -23330303.930 7896106.414 10 0 60960 81900.00000 0 -6923632.253 -24071812.515 4785744.178 10 0 60960 82800.00000 0 -7194552.468 -24410382.753 1582331.205 10 0 60960 83700.00000 0 -7374515.085 -24348911.901 -1651858.453 10 0 60960 84600.00000 0 -7409226.367 -23903693.677 -4853905.371 10 0 60960 85500.00000 0 -7249575.476 -23103667.591 -7961476.507 10 0 60961 0.00000 0 -6853963.032 -21989153.069 -10914048.162 10 0 60961 900.00000 0 -6190318.195 -20610120.845 -13654096.737 10 0 60961 1800.00000 0 -5237717.529 -19024076.130 -16128228.912 10 0 60961 2700.00000 0 -3987534.531 -17293641.212 -18288233.368 10 0 60961 3600.00000 0 -2444069.893 -15483941.381 -20092028.580 10 0 60961 4500.00000 0 -624634.117 -13659904.453 -21504489.069 10 0 60961 5400.00000 0 1440922.316 -11883588.272 -22498133.337 10 0 60961 6300.00000 0 3711212.489 -10211649.089 -23053659.915 10 0 60961 7200.00000 0 6134808.924 -8693057.417 -23160321.199 10 0 60961 8100.00000 0 8652169.509 -7367157.142 -22816128.130 10 0 60961 9000.00000 0 11197913.130 -6262148.815 -22027882.190 10 0 60961 9900.00000 0 13703349.908 -5394059.836 -20811034.648 10 0 60961 10800.00000 0 16099160.379 -4766243.438 -19189376.396 10 0 60961 11700.00000 0 18318111.777 -4369425.883 -17194565.014 10 0 60961 12600.00000 0 20297698.119 -4182298.069 -14865498.847 10 0 60961 13500.00000 0 21982594.174 -4172624.758 -12247550.878 10 0 60961 14400.00000 0 23326821.351 -4298822.829 -9391677.814 10 0 60961 15300.00000 0 24295535.694 -4511940.306 -6353422.301 10 0 60961 16200.00000 0 24866364.282 -4757951.172 -3191828.167 10 0 60961 17100.00000 0 25030235.295 -4980267.897 31709.787 10 0 60961 18000.00000 0 24791668.373 -5122364.669 3254638.682 10 0 60961 18900.00000 0 24168514.516 -5130400.034 6414459.777 10 0 60961 19800.00000 0 23191157.797 -4955727.941 9449936.402 10 0 60961 20700.00000 0 21901213.495 -4557191.214 12302274.369 10 0 60961 21600.00000 0 20349778.102 -3903100.921 14916252.380 10 0 60961 22500.00000 0 18595304.955 -2972818.442 17241281.260 10 0 60961 23400.00000 0 16701194.463 -1757873.787 19232372.377 10 0 60961 24300.00000 0 14733199.298 -262573.107 20850997.615 10 0 60961 25200.00000 0 12756752.120 1495930.570 22065825.410 10 0 60961 26100.00000 0 10834326.257 3488107.121 22853319.701 10 0 60961 27000.00000 0 9022938.061 5673041.298 23198191.181 10 0 60961 27900.00000 0 7371893.608 7999907.147 23093692.762 10 0 60961 28800.00000 0 5920872.335 10409865.348 22541753.810 10 0 60961 29700.00000 0 4698426.305 12838306.621 21552950.426 10 0 60961 30600.00000 0 3720956.844 15217349.935 20146311.723 10 0 60961 31500.00000 0 2992210.764 17478493.512 18348964.873 10 0 60961 32400.00000 0 2503317.070 19555309.845 16195624.504 10 0 60961 33300.00000 0 2233362.789 21386073.648 13727934.845 10 0 60961 34200.00000 0 2150484.107 22916213.685 10993675.893 10 0 60961 35100.00000 0 2213427.424 24100486.160 8045847.639 10 0 60961 36000.00000 0 2373514.975 24904778.305 4941649.028 10 0 60961 36900.00000 0 2576932.281 25307465.721 1741370.791 10 0 60961 37800.00000 0 2767240.665 25300265.410 -1492776.559 10 0 60961 38700.00000 0 2888008.015 24888547.427 -4697876.616 10 0 60961 39600.00000 0 2885445.473 24091090.885 -7811538.587 10 0 60961 40500.00000 0 2710937.051 22939293.625 -10773121.490 10 0 60961 41400.00000 0 2323353.373 21475868.185 -13524926.091 10 0 60961 42300.00000 0 1691049.733 19753078.681 -16013330.117 10 0 60961 43200.00000 0 793462.038 17830592.923 -18189843.443 10 0 60961 44100.00000 0 -377768.706 15773040.452 -20012061.742 10 0 60961 45000.00000 0 -1818192.476 13647379.762 -21444499.221 10 0 60961 45900.00000 0 -3510493.797 11520185.935 -22459283.763 10 0 60961 46800.00000 0 -5424986.281 9454973.008 -23036700.778 10 0 60961 47700.00000 0 -7520638.160 7509663.753 -23165575.247 10 0 60961 48600.00000 0 -9746586.289 5734312.891 -22843484.846 10 0 60961 49500.00000 0 -12044075.435 4169178.687 -22076800.458 10 0 60961 50400.00000 0 -14348741.706 2843222.923 -20880553.839 10 0 60961 51300.00000 0 -16593144.520 1773100.796 -19278135.632 10 0 60961 52200.00000 0 -18709441.198 962681.465 -17300830.192 10 0 60961 53100.00000 0 -20632092.237 403117.456 -14987196.890 10 0 60961 54000.00000 0 -22300484.250 73457.915 -12382310.503 10 0 60961 54900.00000 0 -23661361.103 -58222.208 -9536876.009 10 0 60961 55800.00000 0 -24670961.930 -33226.632 -6506235.589 10 0 60961 56700.00000 0 -25296777.227 99755.032 -3349287.616 10 0 60961 57600.00000 0 -25518850.321 286951.654 -127339.125 10 0 60961 58500.00000 0 -25330570.753 472028.065 3097085.547 10 0 60961 59400.00000 0 -24738927.456 598708.481 6261456.580 10 0 60961 60300.00000 0 -23764212.263 613394.625 9304447.364 10 0 60961 61200.00000 0 -22439187.214 467667.829 12167116.772 10 0 60961 62100.00000 0 -20807751.338 120569.715 14794042.504 10 0 60961 63000.00000 0 -18923163.195 -459434.512 17134384.263 10 0 60961 63900.00000 0 -16845893.607 -1292892.498 19142857.034 10 0 60961 64800.00000 0 -14641197.941 -2388266.576 20780596.741 10 0 60961 65700.00000 0 -12376508.453 -3741347.218 22015902.690 10 0 60961 66600.00000 0 -10118754.333 -5335203.221 22824843.537 10 0 60961 67500.00000 0 -7931719.633 -7140671.625 23191716.013 10 0 60961 68400.00000 0 -5873547.532 -9117368.263 23109348.230 10 0 60961 69300.00000 0 -3994493.272 -11215178.480 22579241.956 10 0 60961 70200.00000 0 -2335017.862 -13376167.809 21611551.008 10 0 60961 71100.00000 0 -924300.756 -15536835.067 20224895.576 10 0 60961 72000.00000 0 220767.304 -17630615.921 18446015.099 10 0 60961 72900.00000 0 1096069.762 -19590534.305 16309265.151 10 0 60961 73800.00000 0 1710207.867 -21351892.418 13855966.577 10 0 60961 74700.00000 0 2083904.694 -22854887.754 11133618.050 10 0 60961 75600.00000 0 2248894.308 -24047047.987 8194985.916 10 0 60961 76500.00000 0 2246342.461 -24885381.481 5097087.910 10 0 60961 77400.00000 0 2124865.227 -25338152.376 1900089.751 10 0 60961 78300.00000 0 1938229.224 -25386204.591 -1333864.192 10 0 60961 79200.00000 0 1742831.030 -25023777.662 -4541863.299 10 0 60961 80100.00000 0 1595063.215 -24258778.652 -7661461.915 10 0 60961 81000.00000 0 1548679.658 -23112497.361 -10631904.510 10 0 60961 81900.00000 0 1652273.175 -21618775.758 -13395319.809 10 0 60961 82800.00000 0 1946973.985 -19822665.868 -15897859.349 10 0 60961 83700.00000 0 2464468.185 -17778632.256 -18090757.146 10 0 60961 84600.00000 0 3225421.839 -15548374.652 -19931288.823 10 0 60961 85500.00000 0 4238378.877 -13198362.515 -21383610.707 99